Hourly Data Report for September 16, 2017

All times are specified in Local Standard Time (LST). Add 1 hour to adjust for Daylight Saving Time where and when it is observed.

BAS CARAQUET
NEW BRUNSWICK

47°48'08.000" N
64°50'00.000" W
5.00 m
8100467
71598
WXS

Download Data

Hourly Data (September 2017)
Hourly Data Report for September 16, 2017
Temp Definition
°C
Dew Point Temp Definition
°C
Rel Hum Definition
%
Wind Dir Definition
10's deg

Wind Spd Definition
km/h
Visibility Definition
km
Stn Press Definition
kPa
Hmdx Definition


Wind Chill Definition


Weather Definition


TIME
00:00 13.4 12.3 93 19 10   101.83     LegendNANA
01:00 13.2 12.1 93 19 9   101.82     LegendNANA
02:00 13.1 11.4 90 19 12   101.76     LegendNANA
03:00 13.1 11.1 88 20 9   101.70     LegendNANA
04:00 13.1 11.3 89 22 9   101.67     LegendNANA
05:00 12.4 11.2 93 25 5   101.64     LegendNANA
06:00 12.5 11.5 94 22 6   101.66     LegendNANA
07:00 12.9 12.0 94 25 4   101.69     LegendNANA
08:00 15.2 13.2 88 27 6   101.69     LegendNANA
09:00 15.9 13.4 86 28 6   101.74     LegendNANA
10:00 17.1 12.4 74 29 10   101.76     LegendNANA
11:00 18.3 12.6 70 31 11   101.75     LegendNANA
12:00 17.2 11.9 71 7 9   101.83     LegendNANA
13:00 16.0 9.7 66 6 12   101.90     LegendNANA
14:00 15.0 10.8 76 8 7   101.94     LegendNANA
15:00 14.3 11.0 80 8 9   101.99     LegendNANA
16:00 14.5 10.8 78 7 7   102.04     LegendNANA
17:00 14.6 10.5 76 8 7   102.04     LegendNANA
18:00 13.5 9.4 76 11 3   102.12     LegendNANA
19:00 12.5 9.1 80 13 5   102.14     LegendNANA
20:00 12.1 9.3 83 16 3   102.20     LegendNANA
21:00 11.9 9.9 87 15 3   102.24     LegendNANA
22:00 12.5 6.8 68 9 7   102.23     LegendNANA
23:00 12.6 6.8 68 9 5   102.27     LegendNANA

Notes on Data Quality.

Legend

  • E = Estimated
  • M = Missing
  • NA = Not Available
  • ‡ = Partner data that is not subject to review by the National Climate Archives
Date modified: